Location: Graswijk
(52.9667°N, 6.5500°E)
Time: 07:55:41
(UTC+00:00)

Cosmos 2221 - Pass Details

Date: 15 May 2026
Orbit: 569 x 586 km, 82.5° (Epoch: 6 June)

Event Time Altitude Azimuth Distance (km) Brightness Sun altitude
Exits shadow 22:03:20 23° 123° (ESE) 1,253 3.7 -15.6°
Maximum altitude 22:04:45 28° 89° (E) 1,094 3.6 -15.7°
Drops below altitude 10° 22:08:22 10° 30° (NNE) 1,909 5.6 -15.8°
Sets 22:10:47 0° 19° (NNE) 2,817 6.8 -16.0°
